Terminal Aerodrome Forecast
Issued by NWS

Home | Current Version | Previous Version | Text Only | Print | Product List | Glossary On
Versions: 1 2 3 4 5 6 7 8 9 10 11 12 13 14 15 16 17 18 19 20 21 22 23 24 25 26
000
FTUS46 KEKA 230547
TAFCEC
TAF
KCEC 230547Z 2306/2406 14005KT 5SM BR FEW050 BKN250
     FM231000 12003KT 4SM BR SCT002 OVC250
     FM231300 09003KT 6SM BR BKN140 OVC200
     FM231600 09003KT P6SM BKN120 OVC200
     FM232000 32003KT P6SM BKN100 OVC200
     FM240200 02003KT 6SM BR SCT120 BKN200=

USA.gov is the U.S. government's official web portal to all federal, state and local government web resources and services.